Preview of NWS' New Version of Forecast
This preview is not operational and should not be used for support decisions.

Regional Weather Roundup (RWR)

Issued by National Weather Service (NWS)

                            
000
ASUS42 KTBW 220918
RWRFL 
FLORIDA REGIONAL WEATHER ROUNDUP
NATIONAL WEATHER SERVICE TAMPA BAY RUSKIN FL
500 AM EDT SUN SEP 22 2019

NOTE: "FAIR" INDICATES FEW OR NO CLOUDS BELOW 12,000 FEET WITH NO
SIGNIFICANT WEATHER AND/OR OBSTRUCTIONS TO VISIBILITY.

FLZ001>010-012>015-112-114-115-221000-
PANHANDLE FLORIDA
  
CITY           SKY/WX    TMP DP  RH WIND       PRES   REMARKS
PENSACOLA      FAIR      74  69  85 NE6       30.11S                  
PENSACOLA NAS  LGT RAIN  75  69  81 NE9       30.10S                  
MILTON NAS     FAIR      64  63  96 NE3       30.13S                  
CRESTVIEW      MOCLDY    64  61  90 CALM      30.15S                  
DUKE FIELD     CLOUDY    73  64  73 E6        30.13S HAZE             
VALPARAISO     CLOUDY    76  67  73 NE5       30.12S                  
MARY ESTHER    CLEAR     74  67  79 NE5       30.10S                  
PANAMA CITY    FAIR      70  63  78 NE6       30.12F                  
TYNDALL AFB    FAIR      71  65  81 E6        30.12S                  
APALACHICOLA   MOCLDY    78  66  66 E8        30.11F                  

STATION/POSITION SKY/WX   TEMP    WIND        PRES    WAVE   SWELL
                          AIR SEA DIR/SP/G            HT/PER HT/PER
                          (F)     (DEG/KT/KT) (MB)    (FT/S) (FT/S)
30.1N   87.6W              83 84  100/ 14/ 17 1019.1R   5/ 7   3/ 8
29.2N   88.2W              83     110/ 14/ 17 1018.5F   7/ 8   5/ 8
28.8N   86.0W                 84  100/ 17/ 21 1018.5F   6/ 7
PANAMA CITY BEAC           76 83  110/ 10/ 13 1020.5
TOWER C                    79     110/ 18/ 20 1019.8F
28.5N   84.5W              80      80/ 16/ 17 1019.2F   5/ 6

$$
FLZ011-016>038-118-127-128-134-139-239-221000-
NORTH FLORIDA
  
CITY           SKY/WX    TMP DP  RH WIND       PRES   REMARKS
MARIANNA       FAIR      66  63  90 NE3       30.14S                  
TALLAHASSEE    MOCLDY    68  64  87 E3        30.14S                  
PERRY          FAIR      68  66  91 NE3       30.14F                  
LIVE OAK       CLOUDY    66  66 100 CALM      30.14F                  
CROSS CITY       N/A     67  65  93 NE5       30.12F                  
LAKE CITY      CLOUDY    64  63  94 NE3       30.14F                  
GAINESVILLE    MOCLDY    68  64  87 N3        30.15F                  
WILLISTON      FAIR      64  64  97 CALM      30.12S                  
PALATKA        CLOUDY    66  66 100 CALM      30.13S                  
MAYPORT NAS    FAIR      79  62  56 E13       30.13F                  
JACKSONVILLE   FAIR      69  66  90 N3        30.13F                  
JAX NAS        FAIR      74  63  68 E5        30.13F                  
JAX CECIL      FOG       63  63 100 CALM      30.13F VSB 1            
FERNANDINA BEA MOCLDY    78  65  63 E8        30.14S                  
ST AUGUSTINE   LGT RAIN N/A N/A N/A E14       30.13F                  
PALM COAST     FAIR      74  62  65 E7        30.12R                  

STATION/POSITION SKY/WX   TEMP    WIND        PRES    WAVE   SWELL
                          AIR SEA DIR/SP/G            HT/PER HT/PER
                          (F)     (DEG/KT/KT) (MB)    (FT/S) (FT/S)
SHELL POINT      NOT AVBL
KEATON BEACH               69      40/  6/  7 1020.4F
CEDAR KEY                  71      30/  6/  8 1019.9F
FERNANDINA                 83 80  120/  3/  5 1021.4
30.7N   81.3W                 81                N/A     5/15   2/15
MAYPORT                    79 81  100/  7/ 10 1020.9
31.4N   80.9W              79 81  100/  8/ 10 1021.1S   4/ 8   3/ 8
ST AUGUSTINE               79 80  100/ 13/ 16 1020.1F

$$
FLZ040-043>046-052-053-057-058-063-144-221000-
INTERIOR CENTRAL FLORIDA
  
CITY           SKY/WX    TMP DP  RH WIND       PRES   REMARKS
OCALA          FAIR      65  64  97 CALM      30.12F                  
LEESBURG       FAIR      69  65  86 NE6       30.11F                  
SANFORD        FAIR      70  64  81 NE7       30.09F                  
ORLANDO EXEC   FAIR      73  66  78 NE5       30.09F                  
ORLANDO INTL   FAIR      71  66  84 N7        30.09S                  
KISSIMMEE      FAIR      74  67  78 NE7       30.09F                  
WINTER HAVEN   FAIR      72  68  87 N6        30.08F                  
BARTOW           N/A     72  68  88 NE5       30.06F                  
SEBRING        FAIR      70  67  91 NE6       30.05F                  
OKEECHOBEE       N/A     72  68  88 NE5       30.04S                  

$$
FLZ041-047-054-059-064-141-147-221000-
EAST CENTRAL FLORIDA
  
CITY           SKY/WX    TMP DP  RH WIND       PRES   REMARKS
DAYTONA BEACH  FAIR      76  63  64 E6        30.11S                  
DELAND         FAIR      66  64  94 CALM      30.11S                  
JFK SPACE CTR  CLEAR     77  68  73 E10       30.08S                  
CAPE CANAVERAL FAIR      78  67  70 E9        30.06F                  
PATRICK AFB    FAIR      79  67  66 E15       30.06F                  
MELBOURNE      FAIR      79  64  60 E15       30.06F                  
VERO BEACH     MOCLDY    79  66  64 E14       30.05F                  
FT PIERCE      CLOUDY    79  65  62 E14       30.04F                  
STUART         FAIR      79  63  57 E17G25    30.05S                  

STATION/POSITION SKY/WX   TEMP    WIND        PRES    WAVE   SWELL
                          AIR SEA DIR/SP/G            HT/PER HT/PER
                          (F)     (DEG/KT/KT) (MB)    (FT/S) (FT/S)
28.5N   80.2W              80 82   70/ 17/ 21 1019.0S   8/16   7/16
28.9N   78.5W              78 80   80/ 17/ 21 1019.4F   9/14   7/14
TRIDENT PIER               79 81   60/ 11/ 16 1020.0
28.4N   80.5W                 81                N/A     5/ 7   2/14
27.5N   80.2W                 82                N/A     8/15   5/15

$$
FLZ050-056-061-142-242-148-248-149-249-151-251-155-255-
160-260-221000-
WEST CENTRAL FLORIDA
  
CITY           SKY/WX    TMP DP  RH WIND       PRES   REMARKS
CRYSTAL RIVER  FAIR      66  63  88 CALM      30.10F                  
INVERNESS      FAIR      66  66 100 NE3       30.11S                  
BROOKSVILLE    FAIR      68  64  87 N5        30.10F                  
CLEARWATER AIR FAIR      72  66  83 NE5       30.07F                  
ST PETE CLEARW FAIR      76  68  76 NE10      30.07F                  
TAMPA INTL     FAIR      73  67  81 NE6       30.08F                  
TAMPA EXEC     FAIR      70  68  94 CALM      30.09S                  
PLANT CITY     FAIR      70  68  94 NE3       30.10S                  
MACDILL AFB    FAIR      72  67  84 NE7       30.07S                  
PETER O KNIGHT MOCLDY    72  70  94 NE5       30.08S                  
ST PETERSBURG  FAIR      77  70  79 NE16      30.05F                  
SARASOTA       FAIR      74  69  85 NE7       30.03F                  
VENICE         FAIR      73  70  88 NE10      30.04S                  

STATION/POSITION SKY/WX   TEMP    WIND        PRES    WAVE   SWELL
                          AIR SEA DIR/SP/G            HT/PER HT/PER
                          (F)     (DEG/KT/KT) (MB)    (FT/S) (FT/S)
27.3N   84.2W                 84                N/A     7/ 7
CLEARWATER BEACH           75 83   40/  7/ 11 1018.8
MIDDLE TAMPA BAY           76      70/ 15/ 17 1018.2
VENICE                     74 84   40/  9/ 13 1017.0F

$$
FLZ066-069-070-075>078-162-262-165-265-221000-
SOUTHWEST FLORIDA AND KEYS
  
CITY           SKY/WX    TMP DP  RH WIND       PRES   REMARKS
PUNTA GORDA    FAIR      70  69  97 NE7       30.04F                  
FT MYERS       FAIR      75  68  78 E10       30.01F                  
SOUTHWEST INTL FAIR      75  69  81 NE9       30.01F                  
NAPLES         FAIR      78  72  81 NE13      30.00R                  
MARCO ISLAND   FAIR      76  71  85 NE9       30.01S                  
IMMOKALEE      FAIR      72  70  94 NE6       30.00R                  
MARATHON       MOCLDY    79  75  87 NE22G30   29.93F                  
KEY WEST NAS   MOCLDY    80  75  84 NE17G26   29.93F                  
KEY WEST INTL  MOCLDY    80  75  84 NE15G25   29.94S                  

STATION/POSITION SKY/WX   TEMP    WIND        PRES    WAVE   SWELL
                          AIR SEA DIR/SP/G            HT/PER HT/PER
                          (F)     (DEG/KT/KT) (MB)    (FT/S) (FT/S)
NAPLES                     77 83   50/  8/ 15 1015.8
26.0N   85.6W              83 85   80/ 17/ 25 1015.7F   8/ 7
DRY TORTUGAS               82      80/ 29/ 32 1013.8F
SAND KEY                   80      60/ 22/ 27 1011.9
SOMBRERO KEY               81      50/ 25/ 31 1013.6F
LONG KEY                   80                 1012.7F

$$
FLZ067-068-071>074-168-172>174-221000-
SOUTHEAST FLORIDA 
  
CITY           SKY/WX    TMP DP  RH WIND       PRES   REMARKS
W PALM BEACH   FAIR      79  67  66 E15G25    30.03S                  
FT LAUDER-EXEC FAIR      80  69  69 E15G25    29.99F                  
FT LAUDERDALE  FAIR      80  68  66 E16G24    29.98F                  
POMPANO BEACH  MOCLDY    81  67  62 NE17G24   30.00F                  
PEMBROKE PINES FAIR      81  67  62 NE20G28   30.00F                  
OPA LOCKA      FAIR      80  67  64 E17G25    30.00S                  
MIAMI          FAIR      80  66  62 NE15G22   29.98F                  
WEST KENDALL   FAIR      79  70  74 E12       29.98S                  
HOMESTEAD      CLOUDY    80  72  75 NE21G26   29.96S                  

STATION/POSITION SKY/WX   TEMP    WIND        PRES    WAVE   SWELL
                          AIR SEA DIR/SP/G            HT/PER HT/PER
                          (F)     (DEG/KT/KT) (MB)    (FT/S) (FT/S)
VIRGINIA KEY               81 82   30/ 16/ 22 1014.8
LAKE WORTH                 80 81   70/ 20/ 23 1017.8
FOWEY ROCKS                81 83   60/ 27/ 29 1015.2R
SETTLEMENT POINT           79      60/ 20/ 23 1016.6F

$$